Theta_e
338 339 339 340 340 339 342 346 348 347 348 349 350 350 349 350 353 356 357 359 361 362 363 363 364 364 362 361 362 362 362 361 361 358 356 355 353 356 356 355 355 355 353 356 356 357 361 363 366 362 365 368 367 368 373 372 372 370 373 374 373 372 366
335 336 339 340 341 344 345 346 348 348 349 350 350 352 349 350 354 355 357 361 362 362 362 363 364 363 362 361 362 363 363 363 362 361 359 358 357 359 360 358 357 358 358 356 360 361 362 359 364 363 364 367 366 370 368 371 372 371 369 372 370 372 371
334 336 339 341 340 341 343 345 352 350 350 349 349 351 351 353 355 356 358 360 362 363 363 362 363 362 362 362 362 362 363 362 363 362 358 355 356 352 359 361 360 359 356 357 362 360 360 360 362 367 364 363 362 368 369 369 371 370 371 372 368 367 370
334 333 336 338 340 341 341 345 347 353 355 353 355 355 355 355 357 358 359 359 360 362 361 361 361 360 361 362 362 361 362 363 363 360 358 357 356 354 356 360 361 358 357 354 353 357 354 358 361 364 367 365 365 366 366 365 366 369 369 370 368 367 370
336 338 337 339 342 344 345 345 347 352 351 352 353 354 354 354 356 357 359 359 361 361 362 361 360 360 362 362 360 360 360 361 362 362 361 361 360 357 355 354 358 356 357 356 354 356 363 360 361 361 364 366 364 367 366 366 366 369 369 369 367 366 366
336 337 339 341 341 343 344 346 348 349 350 349 350 352 353 356 358 354 355 360 361 363 364 363 360 362 361 361 360 358 360 361 362 363 363 363 363 359 356 355 355 356 354 357 356 354 358 363 359 361 360 360 359 358 361 363 363 366 368 368 367 365 361
334 334 337 342 340 341 342 343 346 349 348 349 349 353 354 352 351 355 356 361 361 362 362 361 360 361 361 361 359 360 360 359 361 361 362 361 363 361 359 357 357 356 356 358 357 356 354 359 360 362 363 360 359 357 358 362 363 363 366 366 367 367 366
335 335 336 336 337 337 339 342 344 347 350 351 354 352 354 353 354 354 353 359 361 362 362 361 360 360 360 360 359 358 359 359 359 360 362 360 360 360 360 358 358 360 359 356 359 359 354 356 358 362 363 362 361 360 360 363 366 363 364 365 366 365 363
333 335 334 334 337 339 340 342 343 346 350 350 348 349 349 351 351 350 353 358 357 361 362 362 361 361 362 361 360 360 359 360 360 361 360 359 359 358 358 359 358 360 359 354 353 359 357 357 355 360 364 363 364 363 361 364 364 363 362 364 365 364 362
330 336 336 335 339 343 344 342 346 349 349 349 350 349 350 351 351 351 352 355 355 359 362 363 363 362 361 360 359 359 360 360 360 359 358 358 358 357 359 358 357 359 358 355 353 355 359 360 357 361 365 364 365 365 361 364 363 362 362 364 365 364 364
327 334 336 335 336 339 343 346 346 347 347 347 347 348 349 351 352 352 350 353 354 356 362 363 363 362 361 360 359 357 358 358 359 358 358 358 357 357 357 358 357 358 356 356 353 355 357 361 361 361 363 362 363 365 363 362 363 362 360 362 364 365 364
329 332 337 337 337 339 339 343 346 347 347 348 348 347 350 352 353 351 351 353 357 359 362 363 363 362 360 360 358 358 359 359 359 358 358 357 357 355 356 356 358 359 358 358 355 356 356 359 360 361 362 361 361 363 365 365 364 364 362 360 361 363 363
322 334 337 336 336 341 342 343 344 349 349 347 346 347 350 352 351 351 351 352 352 354 360 363 363 362 361 360 358 358 358 358 359 359 358 359 357 356 357 357 358 358 357 358 356 354 354 356 359 362 364 363 362 361 364 366 365 365 365 363 362 362 362
338 327 335 336 336 343 344 345 348 350 351 348 346 346 346 350 352 353 354 354 356 358 358 362 363 363 363 361 360 359 358 360 358 358 361 360 359 359 358 357 357 358 360 359 357 354 353 355 357 361 363 364 363 363 364 366 365 366 367 365 363 362 362
323 323 332 332 336 345 341 346 346 349 350 349 346 346 348 350 351 354 355 356 359 356 359 363 363 362 361 361 360 360 360 361 361 362 362 361 361 360 358 358 358 359 361 362 359 356 354 354 357 358 360 363 364 364 364 364 365 365 366 365 364 362 360
329 328 334 337 339 341 348 346 353 355 353 351 349 350 349 351 354 352 354 358 357 359 359 362 362 361 360 360 361 362 362 364 362 362 363 362 362 361 360 359 359 357 359 361 360 360 359 355 359 360 360 361 364 364 363 363 364 359 348 354 363 362 357
333 334 336 337 341 340 345 347 354 360 364 357 354 353 352 354 354 356 356 357 358 360 360 360 361 360 361 362 363 364 364 364 362 363 364 363 363 362 362 360 359 358 359 362 361 360 362 358 357 358 360 360 361 362 361 361 360 346 338 341 348 360 359
332 335 335 336 338 342 345 343 346 344 347 349 351 356 354 358 356 355 353 356 357 358 359 359 359 358 361 364 365 366 365 363 364 364 364 364 363 363 363 362 361 360 360 361 361 362 362 359 358 358 360 360 361 361 362 363 351 336 335 337 339 350 361
333 334 334 336 338 341 343 347 350 350 342 347 348 346 347 351 352 354 356 357 358 359 358 357 358 360 362 365 366 367 366 365 365 364 364 364 364 364 363 362 362 361 359 359 362 364 363 361 359 358 359 360 361 361 362 362 344 332 333 335 335 337 354
331 332 334 336 337 340 343 346 347 349 351 355 358 350 351 352 346 351 355 354 359 357 359 360 360 361 362 365 367 368 367 366 366 365 365 365 366 365 363 361 361 360 360 359 362 364 362 362 360 360 360 360 363 362 362 363 343 329 330 331 332 334 343
329 330 333 334 336 338 342 346 349 350 351 350 354 355 350 350 351 350 353 356 354 358 362 361 362 362 362 365 368 369 368 367 367 366 366 366 366 366 364 362 362 362 359 357 358 362 363 360 359 360 360 359 361 363 360 361 336 325 326 327 328 332 338
327 328 329 332 334 337 340 342 345 346 349 355 353 352 353 348 346 345 344 350 351 353 358 362 362 364 364 366 368 369 368 368 367 368 367 367 366 365 364 363 362 362 360 358 356 360 363 364 361 361 360 360 358 357 359 358 328 324 324 325 326 330 348
326 326 328 330 332 334 339 343 345 347 354 353 354 352 350 348 347 344 342 347 349 352 354 358 363 364 364 365 368 368 369 368 367 368 368 367 366 365 364 363 363 363 363 359 357 356 359 361 360 362 361 359 359 357 358 359 332 321 321 322 324 329 355
325 326 328 329 332 334 337 340 344 349 351 352 353 354 354 349 348 346 348 345 344 347 349 353 360 364 364 365 368 368 368 368 368 368 368 367 366 366 365 365 364 362 363 359 356 355 358 361 363 363 362 360 359 359 359 359 342 317 319 320 320 335 358
323 325 327 329 330 332 334 337 341 345 350 353 352 354 354 355 353 345 348 347 342 343 346 352 358 363 364 365 367 369 370 370 369 369 368 368 368 367 367 365 364 363 364 359 359 360 362 364 363 362 361 360 360 356 359 358 345 314 319 317 317 334 358
323 324 326 328 330 332 334 338 341 344 346 349 354 356 357 354 353 351 343 343 345 344 349 354 358 363 366 366 367 370 371 370 371 371 369 370 370 370 370 369 365 363 361 360 359 358 359 362 363 362 361 361 360 362 362 360 361 332 316 315 316 323 358
322 323 324 326 327 331 333 336 339 341 345 349 355 357 358 351 350 351 347 344 348 349 351 356 360 364 368 367 365 367 370 370 371 371 372 372 371 369 369 367 365 364 364 360 359 358 358 358 361 360 362 361 362 361 361 362 363 344 314 314 315 318 335
320 321 323 325 327 329 331 334 339 342 346 350 353 356 358 357 355 353 355 349 349 353 354 358 363 365 368 367 366 367 368 370 372 372 371 373 373 371 369 369 368 367 366 363 361 360 359 358 359 359 360 361 363 363 364 361 350 358 316 315 313 316 322
317 318 319 321 323 327 331 334 337 342 346 349 353 357 360 355 353 352 357 357 355 356 359 363 364 367 369 368 367 369 370 371 371 370 369 371 373 371 368 369 368 369 368 366 365 363 361 361 359 357 358 362 364 366 366 367 362 342 333 315 313 313 316
317 317 319 321 323 326 330 333 336 339 345 351 355 359 361 357 354 354 358 361 361 359 364 367 368 369 369 367 368 369 369 370 370 370 370 371 372 370 368 368 368 369 369 368 366 363 361 361 361 359 356 357 361 361 363 368 370 342 328 324 312 313 314
315 316 317 319 321 326 329 332 334 339 349 358 362 363 364 362 360 365 365 366 365 364 369 368 368 368 368 368 368 369 369 370 370 370 371 371 371 369 368 368 368 367 369 369 366 364 362 361 362 359 357 355 356 358 361 365 367 362 334 321 315 313 313
316 318 319 320 322 324 328 332 336 345 353 356 360 365 365 366 364 367 368 370 367 370 373 369 368 367 368 367 367 368 367 368 367 370 371 371 370 370 369 366 365 365 367 366 364 364 363 362 360 360 359 357 357 357 360 364 366 369 351 328 321 317 314
316 318 319 319 321 324 327 332 336 346 351 353 358 362 367 355 363 376 376 370 369 372 373 370 368 366 367 367 366 367 367 366 365 367 368 370 368 367 367 366 365 364 364 364 361 361 362 362 360 360 359 359 358 359 360 361 364 368 359 344 338 332 329
317 318 319 320 322 324 329 332 333 343 347 351 354 358 363 362 360 368 369 366 363 370 371 368 366 366 367 366 366 366 366 366 364 364 363 365 366 365 365 365 365 363 363 361 362 361 361 361 360 359 360 359 359 359 359 359 361 363 367 354 348 343 341
318 319 319 320 322 326 330 330 330 339 344 345 348 354 352 355 355 363 369 374 368 374 369 368 363 366 366 364 363 363 364 365 366 365 363 365 367 368 367 365 364 364 365 366 368 366 363 362 362 363 363 363 363 361 360 359 359 363 345 359 336 346 349
319 319 319 321 324 327 328 328 330 337 340 340 344 345 348 348 352 355 352 349 358 375 369 368 366 367 364 363 362 361 362 362 363 364 362 364 364 365 358 323 313 341 366 364 353 345 339 340 361 364 363 363 367 368 364 365 364 342 330 323 322 323 326
318 318 319 322 324 324 325 326 329 333 337 339 340 341 341 344 346 349 352 352 349 349 363 371 367 366 365 363 363 359 361 362 362 363 365 365 364 366 360 356 345 307 297 323 346 328 312 316 322 329 338 368 367 363 324 335 341 331 320 315 318 317 318
318 320 322 323 324 322 323 324 325 328 333 337 338 338 340 341 343 346 350 354 353 349 343 344 360 365 364 364 364 361 361 365 365 364 366 365 366 370 362 360 358 353 316 299 311 311 304 304 304 305 306 310 331 363 360 326 316 313 310 312 314 315 313
Wind_Speed
24 23 19 17 16 18 17 16 16 16 17 17 18 20 20 18 16 15 16 18 20 19 18 17 17 16 17 15 15 13 13 12 11 11 10 9 9 8 9 9 8 7 7 7 7 7 5 5 6 8 7 8 7 5 4 5 4 4 3 3 2 2 2
21 20 20 19 19 18 18 17 16 16 16 15 16 17 18 19 16 17 17 19 21 21 20 18 18 17 17 16 14 14 14 14 12 10 10 8 9 8 9 9 8 9 7 7 7 7 6 8 5 7 7 8 7 6 6 5 5 5 4 4 4 4 3
23 20 20 18 18 19 18 17 12 14 16 16 15 17 18 15 17 18 17 19 21 20 19 19 19 18 17 16 15 15 14 14 13 13 13 12 12 13 10 9 9 9 9 7 6 8 8 7 7 5 8 8 8 8 7 6 6 6 5 4 5 5 4
20 21 20 19 18 17 19 18 18 12 10 13 11 9 11 13 16 16 17 20 22 21 21 21 20 19 17 16 16 16 15 14 14 14 15 13 13 12 10 9 9 9 9 9 7 8 9 7 9 6 7 7 8 8 7 7 7 7 6 5 5 5 5
22 21 20 18 19 17 17 18 20 15 15 16 14 14 11 13 14 15 16 20 23 24 25 24 20 19 15 17 15 15 16 17 15 13 13 12 12 11 11 13 11 11 9 10 9 7 6 9 9 9 7 7 8 7 9 8 7 7 7 6 5 5 5
20 18 17 19 19 18 19 20 21 22 20 18 18 16 12 6 4 16 19 21 22 22 21 21 20 18 18 19 17 16 15 15 13 13 13 12 12 13 13 12 12 12 12 11 10 9 8 7 9 10 9 9 9 9 9 9 8 8 8 7 6 6 6
19 19 19 19 20 20 21 21 21 21 21 19 18 13 11 9 10 9 16 20 23 24 24 24 22 21 18 17 16 17 18 18 15 16 14 15 13 13 12 12 11 12 11 9 10 9 10 8 9 10 10 11 9 10 9 9 9 8 7 7 7 6 6
18 17 19 20 21 20 20 20 20 21 20 16 11 13 14 12 10 9 11 15 22 24 23 23 22 20 18 17 17 19 19 19 18 16 15 16 15 14 13 12 11 11 11 11 10 10 11 11 9 9 11 11 10 9 9 9 9 10 7 8 8 8 7
21 19 19 19 20 21 20 19 19 19 19 16 14 12 13 12 15 16 20 20 20 23 24 23 23 20 18 17 17 19 19 18 17 16 18 18 16 17 17 15 13 11 12 12 12 11 10 11 11 9 10 10 9 9 8 9 10 9 8 8 9 9 8
19 20 19 21 21 21 20 19 19 17 15 14 14 15 15 15 15 15 19 18 17 24 25 23 21 20 19 18 20 21 19 18 17 20 20 19 17 18 17 16 15 13 13 14 12 13 11 11 12 10 10 10 10 10 9 8 10 10 9 9 10 9 9
15 18 20 22 18 17 20 19 19 16 16 17 17 15 17 15 15 19 20 17 21 20 23 21 20 21 21 21 22 21 19 21 20 20 21 20 17 19 18 17 16 14 15 15 14 13 12 10 11 11 11 11 11 10 11 10 10 10 10 9 9 10 9
8 14 20 21 20 19 23 19 16 15 15 16 17 18 19 20 22 21 15 18 16 19 22 22 21 21 21 21 21 20 22 21 20 21 22 21 19 20 19 17 16 16 14 15 14 12 13 12 11 11 12 12 11 10 10 9 9 10 10 11 10 9 10
15 7 14 20 17 14 17 16 18 18 19 18 21 19 17 19 20 20 19 20 23 22 23 21 20 18 20 21 22 19 21 21 20 19 20 19 18 17 17 17 17 17 16 15 14 14 15 15 13 11 12 12 12 12 10 10 10 10 10 10 9 10 10
3 10 14 12 12 15 18 16 16 17 17 21 21 21 21 20 20 20 19 20 17 21 22 19 19 18 18 19 18 18 21 20 20 19 17 16 14 14 16 17 16 15 14 13 15 16 15 16 15 12 11 12 12 11 10 11 11 10 10 10 10 10 10
5 10 15 15 11 13 19 17 17 17 19 18 21 21 22 20 20 17 18 19 18 20 22 18 17 18 20 18 17 17 18 16 17 16 15 15 14 14 14 15 13 13 13 13 14 14 14 14 15 14 13 12 12 11 11 11 12 10 11 11 11 9 10
14 15 18 17 17 16 8 15 13 14 17 18 20 19 21 18 16 20 20 19 20 18 18 15 17 16 18 19 17 16 16 16 15 15 15 16 15 14 13 13 13 14 13 14 14 12 11 11 12 15 14 13 13 12 11 10 10 12 17 15 11 10 10
16 16 16 16 14 12 12 4 5 4 6 12 16 16 16 15 18 18 20 19 20 18 17 18 16 17 17 17 16 15 15 15 14 14 15 16 16 15 13 13 13 12 11 12 14 12 11 11 11 14 14 14 14 14 13 12 12 16 17 17 17 12 10
13 13 14 15 14 13 13 11 8 1 8 9 11 11 5 8 13 17 18 18 19 19 19 18 17 18 15 15 14 14 16 15 15 15 15 15 16 16 14 13 12 12 11 11 14 12 11 12 12 11 13 13 15 15 14 12 13 18 18 18 18 15 11
11 12 13 13 14 14 15 14 12 11 7 6 8 8 14 16 10 10 14 14 15 16 19 19 19 16 14 14 15 15 15 14 15 15 15 15 16 15 14 14 12 13 13 13 12 12 11 11 12 11 11 13 14 14 14 13 15 17 20 19 19 18 13
12 12 12 11 12 13 13 12 11 10 10 8 6 10 9 8 13 10 10 15 13 16 15 14 14 15 16 15 15 15 15 15 15 15 15 14 14 14 15 15 14 14 13 13 11 12 13 12 12 10 10 10 12 12 12 13 13 19 20 20 20 19 16
13 14 12 11 11 11 11 11 11 10 9 10 5 9 9 11 9 9 11 8 11 14 12 13 12 14 15 14 14 14 14 15 15 15 14 14 14 14 15 16 14 14 13 13 12 12 12 13 12 11 11 11 10 11 13 13 15 19 20 21 21 21 15
14 14 15 13 12 10 10 11 11 12 12 10 11 8 8 9 10 11 13 14 16 16 14 12 12 13 15 15 15 16 16 16 15 14 14 14 15 15 15 15 15 14 12 12 13 12 11 11 11 12 12 12 12 11 12 12 16 19 20 22 21 21 10
14 14 14 15 15 14 12 12 11 12 12 13 11 11 8 10 9 12 16 15 14 10 13 14 12 13 16 16 16 17 17 17 16 15 15 15 15 16 16 15 15 13 11 12 13 13 13 13 14 10 12 13 12 12 10 10 13 19 21 21 22 15 8
14 14 14 15 15 14 14 13 14 13 13 14 15 14 11 13 13 15 13 10 11 13 16 18 15 14 16 16 17 17 17 17 16 16 16 15 16 16 15 14 13 13 12 13 13 15 15 14 13 13 13 13 13 13 11 10 11 18 19 21 20 18 12
13 14 14 14 15 16 16 16 16 16 15 15 16 16 15 15 17 17 13 13 18 17 16 16 15 15 17 17 17 16 15 16 16 16 16 16 15 14 14 15 13 13 11 13 13 13 11 11 12 13 12 14 15 15 13 13 10 18 19 20 20 18 12
14 14 14 15 15 16 17 16 16 15 16 16 16 15 14 17 15 13 12 14 16 18 18 19 17 16 16 15 15 14 14 15 15 15 16 16 15 14 13 12 13 14 14 14 13 12 12 12 13 14 13 13 14 12 13 15 10 14 20 21 21 22 14
13 14 15 16 16 17 15 15 15 16 18 16 16 19 15 14 13 12 13 16 16 19 19 17 15 13 13 14 16 17 17 16 15 16 15 14 14 14 13 14 14 15 13 15 14 12 11 13 12 14 12 13 12 12 15 14 14 13 21 21 22 23 19
16 17 17 17 17 17 15 16 17 19 19 18 18 18 16 11 10 10 11 17 19 17 16 13 13 13 13 15 15 16 17 17 14 15 14 12 13 13 13 12 13 13 14 14 12 12 12 11 10 11 11 11 10 10 10 12 18 9 18 21 22 23 24
17 18 18 19 20 20 18 17 18 19 20 19 19 18 16 14 11 11 10 14 18 17 12 11 13 13 13 14 14 14 15 14 15 14 15 13 14 14 14 12 13 13 12 12 11 12 12 11 10 9 9 9 8 8 10 9 12 16 16 20 21 22 22
17 18 20 20 20 19 21 19 18 19 20 20 18 17 17 12 9 10 11 14 14 13 10 11 12 13 13 13 14 13 14 14 14 14 15 14 13 14 13 13 13 11 11 12 11 11 11 11 10 9 9 9 9 10 9 9 7 12 19 18 22 21 24
17 17 18 19 19 20 20 18 20 21 21 17 15 15 13 9 8 9 12 11 11 11 11 12 13 13 13 13 13 13 13 12 12 13 14 13 14 13 13 14 13 11 11 11 11 11 11 10 10 11 10 9 9 8 8 7 8 7 13 21 22 23 23
17 17 19 20 20 22 21 21 21 20 18 17 17 19 12 8 8 10 9 9 10 11 11 13 13 14 14 14 13 14 15 14 15 14 13 13 13 13 12 14 14 12 11 11 11 10 10 10 10 10 10 10 10 9 8 7 8 6 9 11 16 18 22
16 16 17 19 20 20 20 19 19 18 15 14 15 14 16 9 6 3 8 9 11 10 12 12 14 13 13 14 13 13 13 15 14 13 15 14 15 15 14 13 13 12 11 11 13 12 10 10 11 10 10 10 10 9 8 8 8 8 7 8 8 7 10
14 17 18 17 17 19 18 17 19 17 15 13 13 15 13 18 5 6 3 9 12 12 11 12 14 13 14 16 13 12 13 13 16 16 16 16 16 16 16 14 14 13 12 13 12 12 11 11 11 11 11 11 10 10 9 10 9 10 9 9 8 8 8
12 14 15 18 19 19 15 17 18 17 14 12 14 12 14 13 15 10 5 2 6 8 12 12 14 14 15 15 15 15 13 13 11 15 15 15 13 12 12 13 13 11 11 12 11 10 13 12 11 10 11 10 10 10 10 9 10 10 9 13 16 13 10
11 13 15 16 13 15 16 19 17 15 14 13 12 14 12 14 13 12 12 14 14 3 12 12 14 13 15 15 15 17 15 14 17 16 14 15 16 13 4 11 9 3 10 12 11 13 10 9 9 10 10 10 8 9 10 10 9 9 13 18 20 20 20
11 12 14 15 16 17 18 19 18 16 16 13 14 13 14 13 13 12 12 9 10 14 7 8 12 10 12 12 12 13 14 15 15 14 11 12 13 9 9 6 7 13 13 3 15 11 8 5 8 6 3 6 8 4 4 3 9 11 14 19 21 22 21
10 9 11 13 12 16 16 18 18 17 15 14 12 11 11 12 13 14 13 8 8 7 7 12 9 8 10 11 11 12 12 11 12 13 12 11 10 10 11 9 7 5 11 15 9 11 12 11 10 10 9 8 5 5 3 4 1 11 15 18 20 20 18
Wind_Direction
183 184 188 184 183 188 190 191 193 191 192 190 192 194 196 188 186 183 181 178 184 183 184 180 178 180 179 180 180 178 180 180 182 186 186 186 187 178 178 181 186 189 185 185 188 198 193 205 178 177 172 179 190 195 193 176 186 200 199 191 192 281 262
180 182 184 185 188 192 191 194 195 189 189 188 187 191 196 189 185 186 181 179 182 185 183 182 181 182 180 180 179 178 179 181 182 183 185 186 186 185 181 183 186 187 191 188 181 189 188 193 205 175 173 171 185 189 196 180 184 195 196 187 200 202 210
180 183 180 181 188 190 186 188 186 188 189 194 189 187 194 189 186 187 181 178 182 185 185 185 184 182 180 178 177 180 179 181 180 182 187 189 188 193 187 185 186 188 195 195 182 179 191 186 197 188 177 174 186 190 191 188 185 191 200 191 200 199 201
179 178 183 181 184 185 188 191 190 179 164 171 169 170 180 199 190 187 183 183 182 184 187 189 185 183 182 178 179 178 180 182 184 186 190 192 190 193 190 187 189 191 191 198 198 189 189 186 183 196 183 174 184 183 190 194 193 190 198 198 202 206 196
168 178 181 180 187 184 186 189 190 178 181 179 171 185 190 202 207 194 188 186 185 187 188 188 185 184 182 179 180 180 181 183 184 186 190 193 190 192 194 194 189 197 192 193 198 199 190 176 180 187 189 182 186 180 183 190 196 185 194 196 206 211 201
166 176 176 177 182 188 191 193 191 189 186 186 180 182 186 158 199 212 201 190 190 190 187 188 186 182 182 183 182 181 180 183 184 185 188 191 188 190 195 194 192 195 197 191 192 197 199 181 182 180 191 192 195 194 186 189 199 191 188 193 201 212 212
173 184 181 179 186 188 190 192 190 189 191 190 187 170 161 184 191 224 220 206 197 192 190 189 190 186 184 184 184 177 179 182 182 187 190 193 193 192 193 195 193 193 199 187 192 191 194 196 183 180 188 196 199 201 190 187 192 194 186 189 195 211 213
172 184 190 190 187 187 187 189 188 186 186 177 136 123 150 160 162 191 256 234 202 195 192 190 190 188 183 185 183 180 180 183 181 186 188 192 194 194 193 195 195 190 192 194 190 189 192 194 193 186 185 196 196 202 193 187 184 190 189 185 197 203 210
180 184 190 185 178 181 185 186 186 182 178 163 151 162 169 170 178 189 206 213 213 201 194 192 190 188 182 183 182 181 180 181 182 184 189 191 193 196 195 195 195 192 191 197 193 189 193 187 197 192 187 194 194 197 201 186 186 188 191 189 192 198 211
181 175 180 182 181 181 185 183 175 175 168 165 162 166 176 188 191 197 197 201 212 209 200 192 190 187 184 185 185 182 178 181 182 185 188 192 194 195 196 194 194 192 195 196 197 191 191 187 191 191 190 192 194 191 199 191 187 191 195 192 190 196 206
197 177 172 177 188 179 159 169 179 175 172 176 178 178 185 188 194 197 205 193 202 213 205 194 189 186 185 185 185 182 182 183 184 186 189 191 194 195 196 194 192 192 195 195 198 191 190 190 186 189 189 192 196 193 193 195 189 190 197 198 193 194 201
239 173 164 174 185 175 172 173 175 177 178 178 180 185 189 191 193 198 193 195 206 207 205 195 190 189 184 185 184 182 182 184 185 188 190 192 193 194 194 195 192 191 194 195 196 191 189 190 189 189 190 193 195 198 193 193 192 190 196 201 199 193 200
208 181 168 177 175 157 163 169 178 177 177 181 187 186 184 184 184 192 194 197 199 208 209 194 191 186 183 185 186 183 185 185 187 188 191 192 195 193 192 194 194 192 192 195 196 197 193 191 193 191 191 192 194 198 194 193 195 192 195 202 201 195 197
159 179 168 169 157 151 161 169 175 179 177 182 188 193 193 189 193 194 192 195 197 203 203 196 191 185 183 186 186 185 186 186 187 188 188 190 193 194 192 195 195 192 187 190 196 199 198 193 192 191 192 191 195 196 195 193 195 195 196 201 203 196 194
157 217 171 158 157 153 168 172 180 183 182 186 191 195 192 190 193 189 198 198 190 203 204 192 188 187 185 186 188 186 186 183 185 184 184 186 189 195 195 195 194 190 184 184 195 199 203 198 190 192 194 192 193 198 198 196 197 198 196 199 204 204 196
22 63 49 40 37 11 168 172 173 186 185 188 193 192 192 190 188 191 197 196 190 197 202 182 188 187 187 189 190 185 182 181 182 183 182 183 186 193 195 192 194 194 189 182 190 196 199 202 188 188 191 192 190 197 201 201 200 199 195 194 199 203 206
30 33 39 30 29 40 23 24 136 135 187 195 198 192 194 186 189 192 197 194 197 195 197 188 185 186 186 189 187 181 180 181 184 182 182 182 185 188 192 193 190 194 191 183 186 194 195 199 195 188 191 194 195 197 203 205 205 192 191 194 198 199 205
23 20 23 25 22 25 33 34 28 56 80 28 353 328 253 210 187 191 195 198 197 197 198 194 186 189 187 183 181 179 181 184 182 183 184 182 185 185 190 192 190 191 192 187 184 190 192 198 199 194 187 192 197 199 201 206 202 185 189 192 196 199 202
10 12 14 14 17 14 19 10 5 7 15 149 161 203 247 270 264 207 196 200 200 195 199 197 190 184 182 181 179 181 183 183 184 185 185 186 185 184 186 191 191 191 191 191 184 183 192 197 200 201 196 189 193 201 201 207 199 183 187 191 194 201 204
10 0 4 16 11 6 8 353 353 344 335 323 307 236 215 219 223 246 197 217 200 203 198 198 190 178 180 180 178 179 181 183 185 186 187 185 184 183 186 190 194 193 189 189 182 183 191 196 201 204 205 200 191 195 203 208 190 184 186 190 193 198 203
6 356 353 2 4 357 352 340 333 332 320 310 334 293 249 221 222 240 227 219 225 205 196 196 196 178 178 177 176 177 180 184 186 188 186 184 184 184 188 191 193 193 191 191 188 184 188 194 200 204 208 210 201 192 201 212 184 182 185 190 193 198 199
357 354 349 346 344 340 337 332 330 316 312 307 293 282 266 256 231 235 236 205 216 213 207 197 196 177 175 176 176 178 181 183 186 187 186 186 185 186 189 191 192 193 191 192 194 191 186 193 202 202 206 208 212 212 204 210 175 181 185 190 194 194 190
347 347 341 336 335 331 324 315 306 312 311 303 302 287 267 274 243 233 224 194 217 228 218 210 195 182 178 180 177 177 179 183 185 187 187 186 188 189 190 189 190 192 190 193 195 193 192 195 201 202 206 206 209 217 214 212 179 181 186 189 192 181 186
342 342 338 333 329 323 320 320 323 319 318 311 303 291 273 252 244 216 225 207 202 211 197 213 202 189 180 182 180 179 181 182 185 186 186 187 191 190 190 187 187 191 190 195 196 198 197 196 199 203 206 206 208 208 212 218 179 185 187 190 184 180 186
344 338 336 332 328 323 325 322 316 307 299 290 279 274 268 261 246 232 208 195 198 210 207 209 200 190 184 183 181 179 178 181 184 185 186 189 190 188 187 189 186 189 188 196 200 200 196 194 200 205 208 209 210 205 205 218 188 186 184 187 182 187 195
344 338 335 332 329 331 321 311 302 300 297 293 289 273 247 247 242 233 215 217 202 203 205 200 199 192 185 179 176 175 178 185 184 184 186 185 185 186 185 182 186 191 192 196 200 201 201 195 198 204 209 208 210 204 202 213 203 183 187 183 184 189 190
345 341 335 335 332 328 318 312 307 302 298 293 288 290 276 248 237 224 206 214 217 206 202 198 192 183 176 176 179 179 181 186 184 184 184 185 182 185 185 186 189 190 190 196 199 201 203 203 199 205 206 210 207 210 208 210 212 184 186 186 185 191 191
346 346 341 336 331 328 322 315 310 304 297 291 287 282 270 249 242 233 212 205 211 207 203 189 177 175 173 176 180 181 183 185 182 182 183 181 180 183 187 186 189 189 187 196 197 199 201 203 204 203 204 209 204 210 212 203 208 171 188 188 190 191 196
348 344 340 336 332 329 326 318 311 304 299 294 290 283 278 252 230 236 232 208 199 199 195 171 170 170 168 173 176 181 182 183 180 179 189 186 183 185 186 183 190 188 185 192 194 196 197 201 207 207 204 200 201 203 207 208 205 178 179 192 192 194 199
347 345 342 335 329 326 326 319 310 304 296 292 285 282 277 254 223 229 224 211 196 187 172 159 161 162 164 170 177 178 184 185 181 181 189 186 182 186 185 186 190 187 185 188 191 192 196 198 203 210 212 208 203 206 204 202 205 177 179 182 191 195 198
342 340 335 332 326 323 321 317 310 302 299 296 287 275 274 249 228 229 213 202 179 170 158 156 156 160 162 171 173 179 186 183 184 183 187 186 183 185 187 186 186 189 185 186 191 193 193 194 194 202 209 215 214 211 206 199 201 159 182 182 189 194 199
337 335 333 332 330 328 321 315 312 308 312 324 340 331 266 224 230 222 207 179 167 159 151 153 156 160 164 170 175 182 188 189 188 184 189 185 186 188 189 187 187 189 184 185 190 192 191 190 193 198 204 211 215 214 208 200 209 172 163 186 191 195 200
335 329 328 327 322 319 321 319 315 319 321 326 339 338 343 286 194 185 175 164 160 149 147 153 157 160 163 169 177 183 191 191 192 186 192 187 188 192 191 190 190 189 184 185 191 193 193 189 192 194 198 206 209 211 210 206 205 192 165 168 172 191 198
332 332 331 326 317 318 318 325 325 323 338 338 345 347 354 358 311 139 160 163 167 144 147 152 161 162 166 173 177 183 190 190 186 183 194 189 189 189 191 192 191 190 185 188 189 190 190 189 191 193 195 199 204 207 209 214 207 206 181 172 167 175 174
331 332 328 328 325 321 327 329 323 322 348 357 354 358 3 3 0 357 0 265 189 137 152 154 164 165 171 175 183 191 190 189 178 186 192 187 187 188 188 191 191 187 187 191 192 192 189 191 190 192 195 195 199 198 208 212 214 211 196 170 179 173 179
333 337 330 325 311 319 335 334 320 327 357 358 354 356 2 5 3 4 11 4 340 260 160 157 167 169 179 180 188 194 190 193 189 186 191 186 187 181 120 27 45 114 185 186 189 188 185 184 197 197 196 203 201 201 205 208 214 200 189 163 175 184 185
335 338 327 323 331 343 342 334 330 339 352 358 360 1 4 7 8 7 8 1 18 0 323 173 165 175 182 186 194 191 189 189 187 184 187 181 183 163 144 137 81 46 30 13 174 151 116 142 145 134 135 184 203 170 47 258 197 191 178 166 178 186 190
332 322 322 328 339 341 336 339 339 343 346 350 353 354 353 2 9 8 354 13 360 40 35 323 295 202 189 197 193 188 181 186 178 178 183 176 177 155 157 153 142 65 40 38 76 107 110 111 103 98 96 72 72 126 121 47 212 174 164 175 180 186 182